Location: Miss�
(46.9484°N, 0.1922°W)
Time: 00:47:30
(UTC+00:00)

ATLAS CENTAUR R/B - Pass Details

Date: 02 March 2021
Orbit: 475 x 670 km, 64.7° (Epoch: 30 March)

Event Time Altitude Azimuth Distance (km) Brightness Sun altitude
Rises 19:53:54 0° 225° (SW) 2,520 5.1 -22.1°
Reaches altitude 10° 19:56:02 10° 229° (SW) 1,640 4.1 -22.5°
Maximum altitude 19:59:38 61° 310° (NW) 548 1.4 -23.1°
Enters shadow 19:59:48 60° 325° (NW) 553 1.4 -23.1°
